Regional Weather Roundup
Issued by NWS Boston, MA

Current Version | Previous Version | Text Only | Print | Product List | Glossary Off
Versions: 1 2 3 4 5 6 7 8 9 10 11 12 13 14 15 16 17 18 19 20 21 22 23 24 25 26 27 28 29 30 31 32 33 34 35 36 37 38 39 40 41 42 43 44 45 46 47 48 49 50
000 ASUS41 KBOX 060010 RWRBOX REGIONAL WEATHER ROUNDUP NATIONAL WEATHER SERVICE TAUNTON MA 700 PM EST THU MAR 05 2015 NOTE: "FAIR" INDICATES FEW OR NO CLOUDS BELOW 12,000 FEET WITH NO SIGNIFICANT WEATHER AND/OR OBSTRUCTIONS TO VISIBILITY. THE FOLLOWING OBSERVATION LOCATIONS DO NOT REPORT PRESENT WEATHER...PROVINCETOWN... SMITHFIELD...BLOCK ISLAND...KEENE...AND OXFORD. MAZALL-060100- EASTERN MASSACHUSETTS CITY SKY/WX TMP DP RH WIND PRES REMARKS BOSTON CLOUDY 23 1 38 NW15 30.21R WCI 10 6HR MIN TEMP: 22; 6HR MAX TEMP: 29; BEVERLY CLOUDY 22 2 42 NW13 30.19R WCI 10 LAWRENCE CLOUDY 20 0 41 NW12G17 30.22R WCI 8 BEDFORD CLOUDY 21 1 41 NW10 30.19R WCI 10 BLUE HILL N/A 21 2 43 NW10 30.14R WCI 10 NORWOOD CLOUDY 24 1 36 VRB6 30.20R WCI 17 MARSHFIELD CLOUDY 27 9 46 NW7 30.20R WCI 19 PLYMOUTH CLOUDY 21 18 88 CALM 30.17S TAUNTON CLOUDY 23 19 85 CALM 30.19R NEW BEDFORD FLURRIES 22 20 92 VRB3 30.18R $$ MAZALL-060100- CAPE COD AND THE ISLANDS CITY SKY/WX TMP DP RH WIND PRES REMARKS FALMOUTH LGT SNOW 21 19 93 N8G14 30.16R WCI 12 HYANNIS LGT SNOW 22 19 89 NW10 30.13S FOG WCI 11 CHATHAM LGT SNOW 22 20 92 VRB5 30.15S FOG WCI 16 PROVINCETOWN CLOUDY 25 12 58 NW6 30.16R WCI 18 NANTUCKET LGT SNOW 24 20 84 N16 30.13S VSB 1 WCI 11 MARTHAS VNYRD LGT SNOW 22 17 81 N8 30.16R WCI 12 $$ MAZALL-060100- CENTRAL AND WESTERN MASSACHUSETTS CITY SKY/WX TMP DP RH WIND PRES REMARKS WORCESTER CLOUDY 20 0 41 N9 30.13R WCI 9 6HR MIN TEMP: 20; 6HR MAX TEMP: 25; FITCHBURG CLOUDY 22 0 38 NW10 30.20R WCI 11 ORANGE CLOUDY 19 1 45 N12 30.19R WCI 7 SPRINGFIELD MOCLDY 22 1 40 NW13 30.20R WCI 10 WESTFIELD CLOUDY 22 3 44 NW7 30.20R WCI 13 NORTH ADAMS CLOUDY 17 1 49 W7 30.22R WCI 8 PITTSFIELD CLOUDY 15 3 59 NW10 30.16R WCI 2 $$ RIZALL-060100- RHODE ISLAND CITY SKY/WX TMP DP RH WIND PRES REMARKS PROVIDENCE CLOUDY 23 17 78 W5 30.20R WCI 17 6HR MIN TEMP: 22; 6HR MAX TEMP: 25; 6HR PCP: 0.10; NEWPORT LGT SNOW 22 19 89 NW9 30.18R FOG WCI 12 BLOCK ISLAND CLOUDY 25 19 80 NW12G17 30.15R WCI 14 SMITHFIELD CLOUDY 21 14 73 CALM 30.16R WESTERLY LGT SNOW 23 20 88 NW7 30.18S FOG WCI 15 $$ CTZALL-060100- CONNECTICUT CITY SKY/WX TMP DP RH WIND PRES REMARKS BRADLEY INTL CLOUDY 24 6 46 NW9 30.20R WCI 14 6HR MIN TEMP: 24; 6HR MAX TEMP: 27; HARTFORD CLOUDY 24 6 46 NW7G18 30.22R WCI 16 BRIDGEPORT CLOUDY 22 11 62 NW9 30.23R WCI 12 DANBURY CLOUDY 20 3 48 NW8 30.23R WCI 10 GROTON FLURRIES 22 17 81 NW10 30.19R WCI 11 NEW HAVEN CLOUDY 23 13 65 NW7 30.22R WCI 15 CHESTER CLOUDY 23 16 74 NW8 30.20R WCI 14 MERIDEN CLOUDY 23 7 50 NW12 30.23R WCI 12 WILLIMANTIC CLOUDY 24 5 44 NW5 30.18R WCI 18 OXFORD CLOUDY 19 1 45 MISG 30.21R $$ MEZ002-015-021-024-NHZ003-005-008-011-012-014-VTZ005-008-060100- NORTHERN NEW ENGLAND CITY SKY/WX TMP DP RH WIND PRES REMARKS PORTLAND ME CLOUDY 20 -2 38 N12 30.17R WCI 8 6HR MIN TEMP: 20; 6HR MAX TEMP: 25; BANGOR ME CLOUDY 14 -9 35 NW13 30.15R WCI 0 CONCORD NH CLOUDY 17 -5 37 NW10 30.21R WCI 5 MANCHESTER NH CLOUDY 19 -2 39 NW14G22 30.19R WCI 6 NASHUA NH CLOUDY 20 -3 36 N12 30.21R WCI 8 PORTSMOUTH NH MOCLDY 20 1 43 W13 30.18R WCI 7 JAFFREY NH CLOUDY 16 -1 47 NW6 30.14R WCI 7 KEENE NH CLOUDY 18 0 45 NW7 30.21R WCI 8 BURLINGTON VT PTCLDY 10 -8 44 NE6 30.29R WCI 0 MT. WASHINGTON MOCLDY -11 -29 40 NW37 N/A WCI -43 $$ NYZ052-076-060100- EASTERN NEW YORK CITY SKY/WX TMP DP RH WIND PRES REMARKS ALBANY CLOUDY 18 0 45 W18G25 30.28R WCI 2 6HR MIN TEMP: 18; 6HR MAX TEMP: 21; NEW YORK CITY FLURRIES 23 14 68 N8 30.25R WCI 14 6HR MIN TEMP: 22; 6HR MAX TEMP: 25; 6HR PCP: 0.10; $$ ANZALL-060100- MARINE OBSERVATIONS STATION/POSITION TIME TEMP WIND PRES VSBY WAVE AIR SEA DIR/SP/G HT/PER (UTC) (F) (DEG/KT/KT) (MB) (MI) (FT/S) BOSTON BUOY 2350 24 36 330/ 12/ 19 1022.0R 3/ 4 BUZZARDS BAY 2300 350/ 13/ 14 1020.9R NANTUCKET SOUND 2350 24 31 350/ 17/ 19 1020.7R 2/ 4 MASS BAY-STELLWA 2304 24 35 310/ 16/ 19 N/A 1 7/8 3/ 5 ISLE OF SHOALS 0000 22 320/ 17/ 20 1021.2R S OF BLOCK IS 2308 36 N/A 4/ 8 $$ ......................KEY......................... SKY/WX - SKY CONDITION/PRESENT WEATHER TMP - TEMPERATURE IN FAHRENHEIT DWPT - DEWPOINT IN FAHRENHEIT RH - RELATIVE HUMIDITY IN PERCENT WIND - DIRECTION AND SPEED IN MPH PRES - MEAN SEA LEVEL PRESSURE IN INCHES OF HG WCI - WIND CHILL INDEX VSB - VISIBILITY IN MILES HX - HEAT INDEX TC - TEMPERATURE IN CELSIUS VRB - VARIABLE WIND DIRECTION N/A - NOT AVAILABLE

USA.gov is the U.S. government's official web portal to all federal, state and local government web resources and services.